contact:dominique.lefevre@mio.osupytheas.fr, maurice.libes@osupytheas.fr, didier.mallarino@osupytheas.fr
Project:EMSO http://www.emso-fr.org/EMSO-France
Depth: 2436.0 m
Title:EMSO Ligure Ouest : Data MII capteur CSTAR
DateTime,Latitude,Longitude,Instrument_Serial,Reference_Counts,Signal_Counts,Corrected_Signal_raw_counts,Calculated_Beam_c_inverse_meters,Internal_thermistor_counts
DateTime,Latitude,Longitude,Instrument_Serial,Reference_Counts,Signal_Counts,Corrected_Signal_raw_counts,Calculated_Beam_c_inverse_meters,Internal_thermistor_counts
2023-02-05T00:03:00,42.805,6.029,CST-1368DR,4394,4851,11730,01.145,551
2023-02-05T00:06:01,42.805,6.029,CST-1368DR,4394,4851,11731,01.144,551
2023-02-05T00:09:03,42.805,6.029,CST-1368DR,4394,4851,11731,01.144,551
2023-02-05T00:12:05,42.805,6.029,CST-1368DR,4394,4851,11732,01.144,551
2023-02-05T00:15:06,42.805,6.029,CST-1368DR,4394,4851,11730,01.145,551
2023-02-05T00:18:08,42.805,6.029,CST-1368DR,4394,4850,11729,01.145,551
2023-02-05T00:21:09,42.805,6.029,CST-1368DR,4394,4850,11728,01.145,551
2023-02-05T00:24:11,42.805,6.029,CST-1368DR,4394,4849,11726,01.146,551
2023-02-05T00:27:12,42.805,6.029,CST-1368DR,4394,4849,11727,01.146,551
2023-02-05T00:30:14,42.805,6.029,CST-1368DR,4394,4851,11731,01.144,551
2023-02-05T00:33:16,42.805,6.029,CST-1368DR,4394,4851,11732,01.144,551
2023-02-05T00:36:17,42.805,6.029,CST-1368DR,4394,4851,11731,01.144,551
2023-02-05T00:39:19,42.805,6.029,CST-1368DR,4394,4861,11755,01.136,551
2023-02-05T00:42:20,42.805,6.029,CST-1368DR,4394,4852,11733,01.144,551
2023-02-05T00:45:22,42.805,6.029,CST-1368DR,4394,4851,11732,01.144,551
2023-02-05T00:48:23,42.805,6.029,CST-1368DR,4394,4851,11731,01.144,551
2023-02-05T00:51:25,42.805,6.029,CST-1368DR,4394,4855,11742,01.140,551
2023-02-05T00:54:27,42.805,6.029,CST-1368DR,4394,4853,11737,01.142,551
2023-02-05T00:57:28,42.805,6.029,CST-1368DR,4394,4853,11736,01.143,551
2023-02-05T01:00:30,42.805,6.029,CST-1368DR,4394,4854,11738,01.142,551
2023-02-05T01:03:31,42.805,6.029,CST-1368DR,4394,4855,11740,01.141,551
2023-02-05T01:06:33,42.805,6.029,CST-1368DR,4394,4854,11738,01.142,551
2023-02-05T01:09:34,42.805,6.029,CST-1368DR,4394,4854,11738,01.142,551
2023-02-05T01:12:36,42.805,6.029,CST-1368DR,4394,4854,11739,01.142,551
2023-02-05T01:15:38,42.805,6.029,CST-1368DR,4394,4854,11739,01.142,551
2023-02-05T01:18:39,42.805,6.029,CST-1368DR,4394,4854,11739,01.142,551
2023-02-05T01:21:41,42.805,6.029,CST-1368DR,4394,4855,11741,01.141,551
2023-02-05T01:24:42,42.805,6.029,CST-1368DR,4394,4854,11738,01.142,551
2023-02-05T01:27:44,42.805,6.029,CST-1368DR,4394,4854,11738,01.142,551
2023-02-05T01:30:46,42.805,6.029,CST-1368DR,4394,4853,11736,01.143,551
2023-02-05T01:33:47,42.805,6.029,CST-1368DR,4394,4854,11738,01.142,551
2023-02-05T01:36:49,42.805,6.029,CST-1368DR,4394,4853,11736,01.143,551
2023-02-05T01:39:50,42.805,6.029,CST-1368DR,4394,4857,11745,01.139,551
2023-02-05T01:42:52,42.805,6.029,CST-1368DR,4394,4854,11738,01.142,551
2023-02-05T01:45:53,42.805,6.029,CST-1368DR,4394,4854,11738,01.142,551
2023-02-05T01:48:55,42.805,6.029,CST-1368DR,4394,4856,11743,01.140,551
2023-02-05T01:51:57,42.805,6.029,CST-1368DR,4394,4856,11742,01.140,551
2023-02-05T01:54:58,42.805,6.029,CST-1368DR,4394,4855,11741,01.141,551
2023-02-05T01:58:00,42.805,6.029,CST-1368DR,4394,4855,11740,01.141,551
2023-02-05T02:01:01,42.805,6.029,CST-1368DR,4394,4854,11739,01.142,551
2023-02-05T02:04:03,42.805,6.029,CST-1368DR,4394,4857,11745,01.139,551
2023-02-05T02:07:04,42.805,6.029,CST-1368DR,4394,4854,11738,01.142,551
2023-02-05T02:10:06,42.805,6.029,CST-1368DR,4394,4857,11745,01.139,551
2023-02-05T02:13:08,42.805,6.029,CST-1368DR,4394,4853,11736,01.143,551
2023-02-05T02:16:09,42.805,6.029,CST-1368DR,4394,4855,11741,01.141,551
2023-02-05T02:19:11,42.805,6.029,CST-1368DR,4394,4856,11743,01.140,551
2023-02-05T02:22:12,42.805,6.029,CST-1368DR,4394,4854,11739,01.142,551
2023-02-05T02:25:14,42.805,6.029,CST-1368DR,4394,4854,11738,01.142,551
2023-02-05T02:28:16,42.805,6.029,CST-1368DR,4394,4855,11741,01.141,551
2023-02-05T02:31:17,42.805,6.029,CST-1368DR,4394,4853,11737,01.142,551
2023-02-05T02:34:19,42.805,6.029,CST-1368DR,4394,4854,11739,01.142,551
2023-02-05T02:37:20,42.805,6.029,CST-1368DR,4394,4854,11739,01.142,551
2023-02-05T02:40:22,42.805,6.029,CST-1368DR,4394,4853,11736,01.143,551
2023-02-05T02:43:23,42.805,6.029,CST-1368DR,4394,4854,11739,01.142,551
2023-02-05T02:46:25,42.805,6.029,CST-1368DR,4394,4853,11736,01.143,551
2023-02-05T02:49:27,42.805,6.029,CST-1368DR,4394,4855,11741,01.141,551
2023-02-05T02:52:28,42.805,6.029,CST-1368DR,4394,4854,11739,01.142,551
2023-02-05T02:55:30,42.805,6.029,CST-1368DR,4394,4853,11736,01.143,551
2023-02-05T02:58:31,42.805,6.029,CST-1368DR,4394,4854,11738,01.142,551
2023-02-05T03:01:33,42.805,6.029,CST-1368DR,4394,4855,11741,01.141,551
2023-02-05T03:04:34,42.805,6.029,CST-1368DR,4394,4857,11745,01.139,551
2023-02-05T03:07:36,42.805,6.029,CST-1368DR,4394,4854,11739,01.142,551
2023-02-05T03:10:38,42.805,6.029,CST-1368DR,4394,4855,11740,01.141,551
2023-02-05T03:13:39,42.805,6.029,CST-1368DR,4394,4857,11747,01.139,551
2023-02-05T03:16:41,42.805,6.029,CST-1368DR,4394,4856,11742,01.140,551
2023-02-05T03:19:42,42.805,6.029,CST-1368DR,4394,4855,11741,01.141,551
2023-02-05T03:22:44,42.805,6.029,CST-1368DR,4394,4856,11744,01.140,551
2023-02-05T03:25:46,42.805,6.029,CST-1368DR,4394,4855,11741,01.141,551
2023-02-05T03:28:47,42.805,6.029,CST-1368DR,4394,4854,11739,01.142,551
2023-02-05T03:31:49,42.805,6.029,CST-1368DR,4394,4856,11743,01.140,551
2023-02-05T03:34:50,42.805,6.029,CST-1368DR,4394,4858,11747,01.139,551
2023-02-05T03:37:52,42.805,6.029,CST-1368DR,4394,4857,11745,01.139,551
2023-02-05T03:40:53,42.805,6.029,CST-1368DR,4394,4856,11744,01.140,551
2023-02-05T03:43:55,42.805,6.029,CST-1368DR,4394,4860,11754,01.136,551
2023-02-05T03:46:57,42.805,6.029,CST-1368DR,4394,4859,11750,01.138,551
2023-02-05T03:49:58,42.805,6.029,CST-1368DR,4394,4858,11748,01.138,551
2023-02-05T03:53:00,42.805,6.029,CST-1368DR,4394,4857,11745,01.139,551
2023-02-05T03:56:01,42.805,6.029,CST-1368DR,4394,4859,11750,01.138,551
2023-02-05T03:59:03,42.805,6.029,CST-1368DR,4394,4857,11746,01.139,551
2023-02-05T04:02:04,42.805,6.029,CST-1368DR,4394,4858,11747,01.139,551
2023-02-05T04:05:06,42.805,6.029,CST-1368DR,4394,4854,11738,01.142,551
2023-02-05T04:08:08,42.805,6.029,CST-1368DR,4394,4858,11749,01.138,551
2023-02-05T04:11:09,42.805,6.029,CST-1368DR,4394,4857,11745,01.139,551
2023-02-05T04:14:11,42.805,6.029,CST-1368DR,4394,4857,11745,01.139,551
2023-02-05T04:17:12,42.805,6.029,CST-1368DR,4394,4858,11749,01.138,551
2023-02-05T04:20:14,42.805,6.029,CST-1368DR,4394,4858,11749,01.138,551
2023-02-05T04:23:16,42.805,6.029,CST-1368DR,4394,4858,11748,01.138,551
2023-02-05T04:26:17,42.805,6.029,CST-1368DR,4394,4859,11751,01.137,551
2023-02-05T04:29:19,42.805,6.029,CST-1368DR,4394,4854,11739,01.142,551
2023-02-05T04:32:20,42.805,6.029,CST-1368DR,4394,4859,11750,01.138,551
2023-02-05T04:35:22,42.805,6.029,CST-1368DR,4394,4862,11757,01.135,551
2023-02-05T04:38:23,42.805,6.029,CST-1368DR,4394,4869,11774,01.130,551
2023-02-05T04:41:25,42.805,6.029,CST-1368DR,4394,4861,11755,01.136,551
2023-02-05T04:44:27,42.805,6.029,CST-1368DR,4394,4857,11745,01.139,551
2023-02-05T04:47:28,42.805,6.029,CST-1368DR,4394,4857,11747,01.139,551
2023-02-05T04:50:30,42.805,6.029,CST-1368DR,4394,4862,11757,01.135,551
2023-02-05T04:53:31,42.805,6.029,CST-1368DR,4394,4860,11754,01.136,551
2023-02-05T04:56:33,42.805,6.029,CST-1368DR,4394,4860,11754,01.136,551
2023-02-05T04:59:34,42.805,6.029,CST-1368DR,4394,4859,11750,01.138,551
2023-02-05T05:02:36,42.805,6.029,CST-1368DR,4394,4860,11753,01.137,551
2023-02-05T05:05:38,42.805,6.029,CST-1368DR,4394,4861,11754,01.136,551
2023-02-05T05:08:39,42.805,6.029,CST-1368DR,4394,4858,11749,01.138,551
2023-02-05T05:11:41,42.805,6.029,CST-1368DR,4394,4858,11749,01.138,551
2023-02-05T05:14:42,42.805,6.029,CST-1368DR,4394,4858,11748,01.138,551
2023-02-05T05:17:44,42.805,6.029,CST-1368DR,4394,4858,11747,01.139,551
2023-02-05T05:20:46,42.805,6.029,CST-1368DR,4394,4858,11748,01.138,551
2023-02-05T05:23:47,42.805,6.029,CST-1368DR,4394,4861,11756,01.136,551
2023-02-05T05:26:49,42.805,6.029,CST-1368DR,4394,4860,11752,01.137,551
2023-02-05T05:29:50,42.805,6.029,CST-1368DR,4394,4858,11748,01.138,551
2023-02-05T05:32:52,42.805,6.029,CST-1368DR,4394,4861,11754,01.136,551
2023-02-05T05:35:53,42.805,6.029,CST-1368DR,4394,4859,11750,01.138,551
2023-02-05T05:38:55,42.805,6.029,CST-1368DR,4394,4859,11751,01.137,551
2023-02-05T05:41:57,42.805,6.029,CST-1368DR,4394,4860,11752,01.137,551
2023-02-05T05:44:58,42.805,6.029,CST-1368DR,4394,4860,11754,01.136,551
2023-02-05T05:48:00,42.805,6.029,CST-1368DR,4394,4862,11758,01.135,551
2023-02-05T05:51:01,42.805,6.029,CST-1368DR,4394,4858,11749,01.138,551
2023-02-05T05:54:03,42.805,6.029,CST-1368DR,4394,4860,11753,01.137,551
2023-02-05T05:57:04,42.805,6.029,CST-1368DR,4394,4860,11752,01.137,551
2023-02-05T06:00:06,42.805,6.029,CST-1368DR,4394,4861,11756,01.136,551
2023-02-05T06:03:08,42.805,6.029,CST-1368DR,4394,4859,11750,01.138,551
2023-02-05T06:06:09,42.805,6.029,CST-1368DR,4393,4858,11752,01.137,551
2023-02-05T06:09:11,42.805,6.029,CST-1368DR,4393,4858,11752,01.137,551
2023-02-05T06:12:12,42.805,6.029,CST-1368DR,4394,4860,11753,01.137,551
2023-02-05T06:15:14,42.805,6.029,CST-1368DR,4393,4861,11759,01.135,551
2023-02-05T06:18:16,42.805,6.029,CST-1368DR,4394,4859,11750,01.138,551
2023-02-05T06:21:17,42.805,6.029,CST-1368DR,4394,4862,11757,01.135,551
2023-02-05T06:24:19,42.805,6.029,CST-1368DR,4394,4860,11754,01.136,551
2023-02-05T06:27:20,42.805,6.029,CST-1368DR,4394,4858,11749,01.138,551
2023-02-05T06:30:22,42.805,6.029,CST-1368DR,4394,4858,11749,01.138,551
2023-02-05T06:33:23,42.805,6.029,CST-1368DR,4394,4860,11752,01.137,551
2023-02-05T06:36:25,42.805,6.029,CST-1368DR,4394,4858,11747,01.139,551
2023-02-05T06:39:27,42.805,6.029,CST-1368DR,4394,4857,11745,01.139,551
2023-02-05T06:42:28,42.805,6.029,CST-1368DR,4394,4860,11753,01.137,551
2023-02-05T06:45:30,42.805,6.029,CST-1368DR,4394,4859,11750,01.138,551
2023-02-05T06:48:31,42.805,6.029,CST-1368DR,4393,4856,11746,01.139,551
2023-02-05T06:51:33,42.805,6.029,CST-1368DR,4393,4855,11743,01.140,551
2023-02-05T06:54:34,42.805,6.029,CST-1368DR,4393,4855,11743,01.140,551
2023-02-05T06:57:36,42.805,6.029,CST-1368DR,4394,4858,11748,01.138,551
2023-02-05T07:00:38,42.805,6.029,CST-1368DR,4393,4854,11741,01.141,551
2023-02-05T07:03:39,42.805,6.029,CST-1368DR,4393,4855,11743,01.140,551
2023-02-05T07:06:41,42.805,6.029,CST-1368DR,4394,4856,11742,01.140,551
2023-02-05T07:09:42,42.805,6.029,CST-1368DR,4394,4855,11741,01.141,551
2023-02-05T07:12:44,42.805,6.029,CST-1368DR,4393,4856,11746,01.139,551
2023-02-05T07:15:46,42.805,6.029,CST-1368DR,4394,4856,11743,01.140,551
2023-02-05T07:18:47,42.805,6.029,CST-1368DR,4394,4856,11744,01.140,551
2023-02-05T07:21:49,42.805,6.029,CST-1368DR,4394,4859,11750,01.138,551
2023-02-05T07:24:50,42.805,6.029,CST-1368DR,4393,4858,11750,01.138,551
2023-02-05T07:27:52,42.805,6.029,CST-1368DR,4393,4858,11751,01.137,551
2023-02-05T07:30:53,42.805,6.029,CST-1368DR,4394,4858,11747,01.139,551
2023-02-05T07:33:55,42.805,6.029,CST-1368DR,4394,4857,11747,01.139,551
2023-02-05T07:36:57,42.805,6.029,CST-1368DR,4393,4860,11755,01.136,551
2023-02-05T07:39:58,42.805,6.029,CST-1368DR,4394,4858,11748,01.138,551
2023-02-05T07:43:00,42.805,6.029,CST-1368DR,4394,4858,11748,01.138,551
2023-02-05T07:46:01,42.805,6.029,CST-1368DR,4394,4857,11747,01.139,551
2023-02-05T07:49:03,42.805,6.029,CST-1368DR,4394,4858,11748,01.138,551
2023-02-05T07:52:04,42.805,6.029,CST-1368DR,4394,4858,11749,01.138,551
2023-02-05T07:55:06,42.805,6.029,CST-1368DR,4394,4858,11747,01.139,551
2023-02-05T07:58:08,42.805,6.029,CST-1368DR,4394,4858,11748,01.138,551
2023-02-05T08:01:09,42.805,6.029,CST-1368DR,4393,4858,11750,01.138,551
2023-02-05T08:04:11,42.805,6.029,CST-1368DR,4393,4859,11753,01.137,551
2023-02-05T08:07:12,42.805,6.029,CST-1368DR,4394,4858,11747,01.139,551
2023-02-05T08:10:14,42.805,6.029,CST-1368DR,4393,4858,11751,01.137,551
2023-02-05T08:13:16,42.805,6.029,CST-1368DR,4394,4857,11745,01.139,551
2023-02-05T08:16:17,42.805,6.029,CST-1368DR,4394,4856,11743,01.140,551
2023-02-05T08:19:19,42.805,6.029,CST-1368DR,4393,4856,11747,01.139,551
2023-02-05T08:22:20,42.805,6.029,CST-1368DR,4393,4857,11748,01.138,551
2023-02-05T08:25:22,42.805,6.029,CST-1368DR,4393,4855,11743,01.140,551
2023-02-05T08:28:23,42.805,6.029,CST-1368DR,4393,4859,11752,01.137,551
2023-02-05T08:31:25,42.805,6.029,CST-1368DR,4393,4853,11739,01.142,551
2023-02-05T08:34:27,42.805,6.029,CST-1368DR,4393,4854,11740,01.141,551
2023-02-05T08:37:28,42.805,6.029,CST-1368DR,4393,4855,11743,01.140,551
2023-02-05T08:40:30,42.805,6.029,CST-1368DR,4393,4856,11747,01.139,551
2023-02-05T08:43:31,42.805,6.029,CST-1368DR,4393,4854,11742,01.140,551
2023-02-05T08:46:33,42.805,6.029,CST-1368DR,4393,4857,11749,01.138,551
2023-02-05T08:49:34,42.805,6.029,CST-1368DR,4393,4857,11748,01.138,551
2023-02-05T08:52:36,42.805,6.029,CST-1368DR,4393,4857,11748,01.138,551
2023-02-05T08:55:38,42.805,6.029,CST-1368DR,4393,4856,11745,01.139,551
2023-02-05T08:58:39,42.805,6.029,CST-1368DR,4393,4857,11749,01.138,551
2023-02-05T09:01:41,42.805,6.029,CST-1368DR,4394,4865,11764,01.133,551
2023-02-05T09:04:42,42.805,6.029,CST-1368DR,4393,4857,11749,01.138,551
2023-02-05T09:07:44,42.805,6.029,CST-1368DR,4394,4856,11744,01.140,551
2023-02-05T09:10:45,42.805,6.029,CST-1368DR,4393,4855,11744,01.140,551
2023-02-05T09:13:47,42.805,6.029,CST-1368DR,4393,4857,11749,01.138,551
2023-02-05T09:16:49,42.805,6.029,CST-1368DR,4393,4853,11739,01.142,551
2023-02-05T09:19:50,42.805,6.029,CST-1368DR,4393,4857,11748,01.138,551
2023-02-05T09:22:52,42.805,6.029,CST-1368DR,4393,4857,11747,01.139,551
2023-02-05T09:25:53,42.805,6.029,CST-1368DR,4393,4857,11748,01.138,551
2023-02-05T09:28:55,42.805,6.029,CST-1368DR,4393,4858,11750,01.138,551
2023-02-05T09:31:57,42.805,6.029,CST-1368DR,4393,4855,11743,01.140,551
2023-02-05T09:34:58,42.805,6.029,CST-1368DR,4393,4857,11748,01.138,551
2023-02-05T09:38:00,42.805,6.029,CST-1368DR,4393,4857,11748,01.138,551
2023-02-05T09:41:01,42.805,6.029,CST-1368DR,4394,4856,11743,01.140,551
2023-02-05T09:44:03,42.805,6.029,CST-1368DR,4393,4858,11752,01.137,551
2023-02-05T09:47:04,42.805,6.029,CST-1368DR,4393,4855,11744,01.140,551
2023-02-05T09:50:06,42.805,6.029,CST-1368DR,4393,4856,11746,01.139,551
2023-02-05T09:53:08,42.805,6.029,CST-1368DR,4393,4859,11752,01.137,551
2023-02-05T09:56:09,42.805,6.029,CST-1368DR,4393,4857,11749,01.138,551
2023-02-05T09:59:11,42.805,6.029,CST-1368DR,4393,4856,11747,01.139,551
2023-02-05T10:02:12,42.805,6.029,CST-1368DR,4393,4858,11751,01.137,551
2023-02-05T10:05:14,42.805,6.029,CST-1368DR,4393,4855,11744,01.140,551
2023-02-05T10:08:16,42.805,6.029,CST-1368DR,4393,4856,11747,01.139,551
2023-02-05T10:11:17,42.805,6.029,CST-1368DR,4393,4857,11747,01.139,551
2023-02-05T10:14:19,42.805,6.029,CST-1368DR,4393,4855,11744,01.140,551
2023-02-05T10:17:20,42.805,6.029,CST-1368DR,4393,4857,11747,01.139,551
2023-02-05T10:20:22,42.805,6.029,CST-1368DR,4393,4856,11745,01.139,551
2023-02-05T10:23:23,42.805,6.029,CST-1368DR,4393,4856,11747,01.139,551
2023-02-05T10:26:25,42.805,6.029,CST-1368DR,4393,4855,11743,01.140,551
2023-02-05T10:29:27,42.805,6.029,CST-1368DR,4393,4857,11747,01.139,551
2023-02-05T10:32:28,42.805,6.029,CST-1368DR,4393,4857,11748,01.138,551
2023-02-05T10:35:30,42.805,6.029,CST-1368DR,4393,4856,11746,01.139,551
2023-02-05T10:38:31,42.805,6.029,CST-1368DR,4393,4856,11746,01.139,551
2023-02-05T10:41:33,42.805,6.029,CST-1368DR,4393,4857,11747,01.139,551
2023-02-05T10:44:34,42.805,6.029,CST-1368DR,4393,4857,11749,01.138,551
2023-02-05T10:47:36,42.805,6.029,CST-1368DR,4393,4857,11748,01.138,551
2023-02-05T10:50:38,42.805,6.029,CST-1368DR,4393,4856,11745,01.139,551
2023-02-05T10:53:39,42.805,6.029,CST-1368DR,4393,4855,11743,01.140,551
2023-02-05T10:56:41,42.805,6.029,CST-1368DR,4393,4857,11749,01.138,551
2023-02-05T10:59:42,42.805,6.029,CST-1368DR,4393,4858,11750,01.138,551
2023-02-05T11:02:44,42.805,6.029,CST-1368DR,4393,4858,11750,01.138,551
2023-02-05T11:05:45,42.805,6.029,CST-1368DR,4393,4857,11749,01.138,551
2023-02-05T11:08:47,42.805,6.029,CST-1368DR,4393,4857,11749,01.138,551
2023-02-05T11:11:49,42.805,6.029,CST-1368DR,4393,4857,11749,01.138,551
2023-02-05T11:14:50,42.805,6.029,CST-1368DR,4393,4856,11747,01.139,551
2023-02-05T11:17:52,42.805,6.029,CST-1368DR,4393,4858,11750,01.138,551
2023-02-05T11:20:53,42.805,6.029,CST-1368DR,4393,4858,11750,01.138,551
2023-02-05T11:23:55,42.805,6.029,CST-1368DR,4393,4858,11750,01.138,551
2023-02-05T11:26:57,42.805,6.029,CST-1368DR,4393,4857,11749,01.138,551
2023-02-05T11:29:58,42.805,6.029,CST-1368DR,4393,4857,11749,01.138,551
2023-02-05T11:33:00,42.805,6.029,CST-1368DR,4393,4856,11745,01.139,551
2023-02-05T11:36:01,42.805,6.029,CST-1368DR,4393,4857,11749,01.138,551
2023-02-05T11:39:03,42.805,6.029,CST-1368DR,4393,4859,11753,01.137,551
2023-02-05T11:42:04,42.805,6.029,CST-1368DR,4393,4858,11751,01.137,551
2023-02-05T11:45:06,42.805,6.029,CST-1368DR,4393,4857,11749,01.138,551
2023-02-05T11:48:08,42.805,6.029,CST-1368DR,4393,4857,11749,01.138,551
2023-02-05T11:51:09,42.805,6.029,CST-1368DR,4393,4859,11753,01.137,551
2023-02-05T11:54:11,42.805,6.029,CST-1368DR,4393,4847,11723,01.147,551
2023-02-05T11:57:12,42.805,6.029,CST-1368DR,4393,4857,11749,01.138,551
2023-02-05T12:00:14,42.805,6.029,CST-1368DR,4393,4858,11752,01.137,551
2023-02-05T12:03:15,42.805,6.029,CST-1368DR,4393,4857,11749,01.138,551
2023-02-05T12:06:17,42.805,6.029,CST-1368DR,4393,4858,11750,01.138,551
2023-02-05T12:09:19,42.805,6.029,CST-1368DR,4393,4859,11753,01.137,551
2023-02-05T12:12:20,42.805,6.029,CST-1368DR,4393,4857,11749,01.138,551
2023-02-05T12:15:22,42.805,6.029,CST-1368DR,4393,4858,11750,01.138,551
2023-02-05T12:18:23,42.805,6.029,CST-1368DR,4393,4859,11752,01.137,551
2023-02-05T12:21:25,42.805,6.029,CST-1368DR,4393,4858,11750,01.138,551
2023-02-05T12:24:27,42.805,6.029,CST-1368DR,4393,4857,11749,01.138,551
2023-02-05T12:27:28,42.805,6.029,CST-1368DR,4393,4858,11751,01.137,551
2023-02-05T12:30:30,42.805,6.029,CST-1368DR,4393,4858,11751,01.137,551
2023-02-05T12:33:31,42.805,6.029,CST-1368DR,4393,4857,11749,01.138,551
2023-02-05T12:36:33,42.805,6.029,CST-1368DR,4393,4856,11745,01.139,551
2023-02-05T12:39:34,42.805,6.029,CST-1368DR,4393,4858,11752,01.137,551
2023-02-05T12:42:36,42.805,6.029,CST-1368DR,4393,4859,11753,01.137,551
2023-02-05T12:45:38,42.805,6.029,CST-1368DR,4393,4856,11747,01.139,551
2023-02-05T12:48:39,42.805,6.029,CST-1368DR,4393,4858,11751,01.137,551
2023-02-05T12:51:41,42.805,6.029,CST-1368DR,4393,4858,11752,01.137,551
2023-02-05T12:54:42,42.805,6.029,CST-1368DR,4393,4859,11752,01.137,551
2023-02-05T12:57:44,42.805,6.029,CST-1368DR,4393,4861,11757,01.135,551
2023-02-05T13:00:45,42.805,6.029,CST-1368DR,4393,4858,11751,01.137,551
2023-02-05T13:03:47,42.805,6.029,CST-1368DR,4393,4859,11753,01.137,551
2023-02-05T13:06:49,42.805,6.029,CST-1368DR,4393,4858,11750,01.138,551
2023-02-05T13:09:50,42.805,6.029,CST-1368DR,4393,4858,11751,01.137,551
2023-02-05T13:12:52,42.805,6.029,CST-1368DR,4393,4859,11753,01.137,551
2023-02-05T13:15:53,42.805,6.029,CST-1368DR,4393,4858,11751,01.137,551
2023-02-05T13:18:55,42.805,6.029,CST-1368DR,4393,4858,11752,01.137,551
2023-02-05T13:21:57,42.805,6.029,CST-1368DR,4393,4864,11765,01.133,551
2023-02-05T13:24:58,42.805,6.029,CST-1368DR,4393,4859,11752,01.137,551
2023-02-05T13:28:00,42.805,6.029,CST-1368DR,4393,4859,11753,01.137,551
2023-02-05T13:31:01,42.805,6.029,CST-1368DR,4393,4858,11751,01.137,551
2023-02-05T13:34:03,42.805,6.029,CST-1368DR,4393,4859,11753,01.137,551
2023-02-05T13:37:04,42.805,6.029,CST-1368DR,4393,4859,11753,01.137,551
2023-02-05T13:40:06,42.805,6.029,CST-1368DR,4393,4859,11752,01.137,551
2023-02-05T13:43:08,42.805,6.029,CST-1368DR,4393,4859,11753,01.137,551
2023-02-05T13:46:09,42.805,6.029,CST-1368DR,4393,4860,11755,01.136,551
2023-02-05T13:49:11,42.805,6.029,CST-1368DR,4393,4860,11755,01.136,551
2023-02-05T13:52:12,42.805,6.029,CST-1368DR,4393,4860,11756,01.136,551
2023-02-05T13:55:14,42.805,6.029,CST-1368DR,4393,4864,11764,01.133,551
2023-02-05T13:58:15,42.805,6.029,CST-1368DR,4393,4861,11757,01.135,551
2023-02-05T14:01:17,42.805,6.029,CST-1368DR,4393,4858,11750,01.138,551
2023-02-05T14:04:19,42.805,6.029,CST-1368DR,4393,4860,11755,01.136,551
2023-02-05T14:07:20,42.805,6.029,CST-1368DR,4393,4858,11752,01.137,551
2023-02-05T14:10:22,42.805,6.029,CST-1368DR,4393,4862,11760,01.134,551
2023-02-05T14:13:23,42.805,6.029,CST-1368DR,4393,4862,11759,01.135,551
2023-02-05T14:16:25,42.805,6.029,CST-1368DR,4393,4858,11750,01.138,551
2023-02-05T14:19:27,42.805,6.029,CST-1368DR,4393,4859,11752,01.137,551
2023-02-05T14:22:28,42.805,6.029,CST-1368DR,4393,4858,11751,01.137,551
2023-02-05T14:25:30,42.805,6.029,CST-1368DR,4393,4859,11753,01.137,551
2023-02-05T14:28:31,42.805,6.029,CST-1368DR,4393,4859,11753,01.137,551
2023-02-05T14:31:33,42.805,6.029,CST-1368DR,4393,4861,11758,01.135,551
2023-02-05T14:34:34,42.805,6.029,CST-1368DR,4393,4859,11752,01.137,551
2023-02-05T14:37:36,42.805,6.029,CST-1368DR,4393,4857,11749,01.138,551
2023-02-05T14:40:38,42.805,6.029,CST-1368DR,4393,4857,11749,01.138,551
2023-02-05T14:43:39,42.805,6.029,CST-1368DR,4393,4859,11753,01.137,551
2023-02-05T14:46:41,42.805,6.029,CST-1368DR,4393,4859,11753,01.137,551
2023-02-05T14:49:42,42.805,6.029,CST-1368DR,4393,4858,11750,01.138,551
2023-02-05T14:52:44,42.805,6.029,CST-1368DR,4393,4858,11750,01.138,551
2023-02-05T14:55:45,42.805,6.029,CST-1368DR,4393,4858,11751,01.137,551
2023-02-05T14:58:47,42.805,6.029,CST-1368DR,4393,4857,11747,01.139,551
2023-02-05T15:01:49,42.805,6.029,CST-1368DR,4393,4857,11747,01.139,551
2023-02-05T15:04:50,42.805,6.029,CST-1368DR,4393,4859,11753,01.137,551
2023-02-05T15:07:52,42.805,6.029,CST-1368DR,4393,4857,11747,01.139,551
2023-02-05T15:10:53,42.805,6.029,CST-1368DR,4393,4857,11748,01.138,551
2023-02-05T15:13:55,42.805,6.029,CST-1368DR,4393,4858,11750,01.138,551
2023-02-05T15:16:57,42.805,6.029,CST-1368DR,4393,4857,11748,01.138,551
2023-02-05T15:19:58,42.805,6.029,CST-1368DR,4393,4860,11756,01.136,551
2023-02-05T15:23:00,42.805,6.029,CST-1368DR,4393,4857,11747,01.139,551
2023-02-05T15:26:01,42.805,6.029,CST-1368DR,4393,4856,11746,01.139,551
2023-02-05T15:29:03,42.805,6.029,CST-1368DR,4393,4856,11746,01.139,551
2023-02-05T15:32:04,42.805,6.029,CST-1368DR,4393,4860,11756,01.136,551
2023-02-05T15:35:06,42.805,6.029,CST-1368DR,4393,4858,11752,01.137,551
2023-02-05T15:38:08,42.805,6.029,CST-1368DR,4393,4857,11749,01.138,551
2023-02-05T15:41:09,42.805,6.029,CST-1368DR,4393,4857,11749,01.138,551
2023-02-05T15:44:11,42.805,6.029,CST-1368DR,4393,4856,11746,01.139,551
2023-02-05T15:47:12,42.805,6.029,CST-1368DR,4393,4860,11755,01.136,551
2023-02-05T15:50:14,42.805,6.029,CST-1368DR,4393,4857,11749,01.138,551
2023-02-05T15:53:15,42.805,6.029,CST-1368DR,4393,4856,11747,01.139,551
2023-02-05T15:56:17,42.805,6.029,CST-1368DR,4393,4856,11747,01.139,551
2023-02-05T15:59:19,42.805,6.029,CST-1368DR,4393,4856,11745,01.139,551
2023-02-05T16:02:20,42.805,6.029,CST-1368DR,4393,4855,11744,01.140,551
2023-02-05T16:05:22,42.805,6.029,CST-1368DR,4393,4857,11749,01.138,551
2023-02-05T16:08:23,42.805,6.029,CST-1368DR,4393,4858,11750,01.138,551
2023-02-05T16:11:25,42.805,6.029,CST-1368DR,4393,4858,11750,01.138,551
2023-02-05T16:14:27,42.805,6.029,CST-1368DR,4393,4856,11747,01.139,551
2023-02-05T16:17:28,42.805,6.029,CST-1368DR,4393,4868,11775,01.129,551
2023-02-05T16:20:30,42.805,6.029,CST-1368DR,4393,4858,11751,01.137,551
2023-02-05T16:23:31,42.805,6.029,CST-1368DR,4393,4857,11748,01.138,551
2023-02-05T16:26:33,42.805,6.029,CST-1368DR,4393,4856,11746,01.139,551
2023-02-05T16:29:34,42.805,6.029,CST-1368DR,4393,4857,11748,01.138,551
2023-02-05T16:32:36,42.805,6.029,CST-1368DR,4393,4857,11749,01.138,551
2023-02-05T16:35:38,42.805,6.029,CST-1368DR,4393,4858,11751,01.137,551
2023-02-05T16:38:39,42.805,6.029,CST-1368DR,4393,4857,11747,01.139,551